Reading, PA

8:13 PM EST on February 10, 2016 (GMT -0500)
Reading Regional-Spaatz

Weather History for KRDG - March, 2014

Change the Weather History Date:

Sunday, March 9, 2014

  Actual Average Record
Temperature  
Mean Temperature 37 °F 39 °F  
Max Temperature 42 °F 48 °F 74 °F (2000)
Min Temperature 32 °F 29 °F 9 °F (1996)
Degree Days  
Heating Degree Days 28 26  
Month to date heating degree days 335 249  
Since 1 July heating degree days 4645 4291  
Cooling Degree Days 0 0  
Month to date cooling degree days 0 0  
Year to date cooling degree days 0 0  
Moisture  
Dew Point 22 °F    
Average Humidity 55    
Maximum Humidity 76    
Minimum Humidity 34    
Precipitation  
Precipitation T in 0.10 in 2.79 in (1995)
Month to date precipitation 0.03 0.82  
Year to date precipitation 6.71 6.35  
Sea Level Pressure  
Sea Level Pressure 30.02 in    
Wind  
Wind Speed 9 mph (WNW)    
Max Wind Speed 21 mph    
Max Gust Speed 27 mph    
Visibility 10 miles    
Events      
T = Trace of Precipitation, MM = Missing Value Source: NWS Daily Summary

Daily Weather History Graph

Daily Weather History Graph

Search for Another Location

Airport or City:

Trip Planner

Search our weather history database for the weather conditions in past years. The results will help you decide how hot, cold, wet, or windy it might be!

Date:

Astronomy

Mar. 09, 2014 Rise Set
Actual Time 7:25 AM EDT 7:04 PM EDT
Civil Twilight 6:57 AM EDT 7:31 PM EDT
Nautical Twilight 6:26 AM EDT 8:02 PM EDT
Astronomical Twilight 5:54 AM EDT 8:34 PM EDT
Moon 12:54 PM EDT (3/9) 3:49 AM EDT (3/9)
Length of Visible Light 12h 33m
Length of Day
11h 39m
First Quarter, 61% of the Moon is Illuminated
Mar 9
First Quarter
Mar 16
Full
Mar 23
Last Quarter
Mar 30
New
Apr 7
First Quarter

Hourly Weather History & Observations

Time (EDT) Temp. Windchill Dew Point Humidity Pressure Visibility Wind Dir Wind Speed Gust Speed Precip Events Conditions
12:54 AM 39.9 °F 35.8 °F 32.0 °F 73% 29.94 in 9.0 mi NW 5.8 mph - 0.00 in   Overcast
1:49 AM 39.2 °F 33.6 °F 32.0 °F 75% 29.93 in 10.0 mi NW 8.1 mph - N/A   Overcast
1:54 AM 39.9 °F 33.9 °F 32.0 °F 73% 29.94 in 10.0 mi NW 9.2 mph - N/A   Overcast
3:54 AM 39.0 °F 33.4 °F 30.9 °F 73% 29.94 in 9.0 mi NW 8.1 mph - N/A   Overcast
4:54 AM 39.0 °F 33.4 °F 30.9 °F 73% 29.96 in 8.0 mi WNW 8.1 mph - N/A   Overcast
5:46 AM 37.9 °F 30.9 °F 30.0 °F 73% 29.95 in 8.0 mi NNW 10.4 mph - N/A   Overcast
5:54 AM 37.9 °F 31.5 °F 30.0 °F 73% 29.98 in 7.0 mi NNW 9.2 mph - N/A   Overcast
6:54 AM 37.0 °F 29.3 °F 24.1 °F 59% 30.01 in 10.0 mi NNW 11.5 mph - N/A   Mostly Cloudy
7:54 AM 35.1 °F 27.9 °F 23.0 °F 61% 30.03 in 10.0 mi NNW 9.2 mph - N/A   Partly Cloudy
8:54 AM 36.0 °F 27.1 °F 21.9 °F 57% 30.06 in 10.0 mi NW 13.8 mph - N/A   Partly Cloudy
9:54 AM 36.0 °F 27.1 °F 19.9 °F 52% 30.08 in 10.0 mi NNW 13.8 mph - N/A   Clear
10:54 AM 37.0 °F 27.7 °F 19.9 °F 50% 30.09 in 10.0 mi NNW 16.1 mph - N/A   Clear
11:54 AM 37.0 °F 28.1 °F 18.0 °F 46% 30.10 in 10.0 mi NW 15.0 mph - N/A   Scattered Clouds
12:54 PM 37.9 °F 30.5 °F 19.0 °F 47% 30.10 in 10.0 mi NW 11.5 mph 21.9 mph N/A   Clear
1:54 PM 39.0 °F 31.8 °F 17.1 °F 41% 30.08 in 10.0 mi NW 11.5 mph - N/A   Clear
2:54 PM 39.9 °F 32.5 °F 17.1 °F 40% 30.05 in 10.0 mi West 12.7 mph 20.7 mph N/A   Clear
3:54 PM 39.9 °F 32.5 °F 14.0 °F 35% 30.03 in 10.0 mi West 12.7 mph - N/A   Clear
4:54 PM 39.9 °F 32.5 °F 15.1 °F 36% 30.02 in 10.0 mi West 12.7 mph - N/A   Clear
5:54 PM 39.9 °F 34.5 °F 16.0 °F 38% 30.01 in 10.0 mi West 8.1 mph - N/A   Clear
6:54 PM 39.0 °F 32.8 °F 17.1 °F 41% 30.02 in 10.0 mi West 9.2 mph - N/A   Clear
7:54 PM 37.0 °F 31.0 °F 17.1 °F 44% 30.04 in 10.0 mi West 8.1 mph - N/A   Clear
8:54 PM 37.0 °F 33.3 °F 18.0 °F 46% 30.04 in 10.0 mi West 4.6 mph - N/A   Clear
9:54 PM 36.0 °F 32.1 °F 17.1 °F 46% 30.03 in 10.0 mi West 4.6 mph - N/A   Clear
10:54 PM 36.0 °F - 16.0 °F 44% 30.02 in 10.0 mi Calm Calm - N/A   Clear
11:54 PM 33.1 °F - 19.0 °F 56% 29.99 in 10.0 mi Calm Calm - N/A   Clear
12:54 AM 35.1 °F 32.2 °F 16.0 °F 46% 29.97 in 10.0 mi South 3.5 mph - N/A   Mostly Cloudy